Location: Crescent
(42.8242°N, 73.7329°W)
Time: 02:52:02
(UTC+00:00)

Transit 4A - Pass Details

Date: 24 February 2026
Orbit: 863 x 978 km, 66.8° (Epoch: 13 March)

Event Time Altitude Azimuth Distance (km) Brightness Sun altitude
Rises 15:25:23 0° 331° (NNW) 3,612 10.5 32.9°
Reaches altitude 10° 15:27:59 10° 336° (NNW) 2,680 9.9 33.1°
Maximum altitude 15:34:08 55° 54° (NE) 1,150 8.8 33.6°
Drops below altitude 10° 15:40:22 10° 132° (SE) 2,716 11.5 34.2°
Sets 15:43:00 0° 136° (SE) 3,664 11.9 34.4°
